Location: Castelbiague
(43.0361°N, 0.9246°E)
Time: 23:01:25
(UTC+00:00)

Cosmos 1346 Rocket - Visible Passes

Search period start: 23 October 2021 00:00
Search period end: 02 November 2021 00:00
Orbit: 530 x 547 km, 81.2° (Epoch: 23 October)

Date Brightness Start Highest point End Pass type
(mag) Time Alt. Az. Time Alt. Az. Time Alt. Az.
23 Oct 5.2 03:38:19 10° SE 03:41:25 22° E 03:44:34 10° NE visible
23 Oct 3.7 05:14:10 10° SW 05:17:35 27° WNW 05:21:04 10° NNW visible
24 Oct 5.1 03:32:40 21° ESE 03:33:25 23° E 03:36:35 10° NE visible
24 Oct 3.7 05:08:16 22° WSW 05:09:36 27° WNW 05:13:03 10° NNW visible
25 Oct 5.3 03:26:19 21° ENE 03:26:19 21° ENE 03:28:36 10° NE visible
25 Oct 3.8 05:01:53 26° WNW 05:01:53 26° WNW 05:05:03 10° NNW visible
26 Oct 5.7 03:19:36 15° NE 03:19:36 15° NE 03:20:37 10° NE visible
26 Oct 4.3 04:55:09 21° NW 04:55:09 21° NW 04:57:03 10° NNW visible
27 Oct 4.9 04:48:11 15° NNW 04:48:11 15° NNW 04:49:03 10° NNW visible
